Regional Weather Roundup
Issued by NWS Upton, NY

Current Version | Previous Version | Text Only | Print | Product List | Glossary On
Versions: 1 2 3 4 5 6 7 8 9 10 11 12 13 14 15 16 17 18 19 20 21 22 23 24 25 26 27 28 29 30 31 32 33 34 35 36 37 38 39 40 41 42 43 44 45 46 47 48 49 50
016
ASUS41 KOKX 282205
RWROKX

REGIONAL WEATHER ROUNDUP
NATIONAL WEATHER SERVICE NEW YORK NY
600 PM EDT THU JUL 28 2016

NOTE: "FAIR" INDICATES FEW OR NO CLOUDS BELOW 12,000 FEET WITH NO
SIGNIFICANT WEATHER AND/OR OBSTRUCTIONS TO VISIBILITY.

NYZ071-072-176-178-NJZ106-104-282300-
NEW YORK CITY METRO AREA

CITY           SKY/WX    TMP DP  RH WIND       PRES   REMARKS
Central Park   PTSUNNY   83  69  62 VRB6      29.90R
LaGuardia APRT CLOUDY    86  71  60 SW16      29.86R HX  91
Kennedy INTL   CLOUDY    80  76  87 S16       29.88R
Newark/Liberty LGT RAIN  83  70  64 SW18G29   29.87R
Bronx Bot Gard   N/A     82  68  61 E2        29.88R
Wall St Helipt CLOUDY    82  73  74 SW10      29.89R
Teterboro      LGT RAIN  87  66  49 S16G23    29.85R
$$

NYZ177-179-078>081-282300-
LONG ISLAND NEW YORK

CITY           SKY/WX    TMP DP  RH WIND       PRES   REMARKS
Farmingdale    CLOUDY    82  74  76 S13       29.88R
MacArthur/ISP  CLOUDY    81  75  82 S8        29.87R
Shirley        CLOUDY    81  75  82 S13       29.89R
Riverhead      NOT AVBL
Westhampton    PTSUNNY   81  73  76 S9        29.90R
Southhampton     N/A     79  75  89 SW6       29.84R
Bridgehampton    N/A     82  75  78 S2        29.86F
East Hampton   PTSUNNY   80  75  85 SW6       29.87S
Montauk          N/A     79  75  87 S7        29.89R
$$

NYZ052-065-067-282300-
HUDSON VALLEY

CITY           SKY/WX    TMP DP  RH WIND       PRES   REMARKS
White Plains   PTSUNNY   82  69  64 S8        29.88R
Newburgh       PTSUNNY   90  63  40 VRB5      29.87R HX  90
Montgomery     CLOUDY    86  65  49 S8        29.84S
Poughkeepsie   PTSUNNY   93  58  30 CALM      29.82S HX  92
Albany         CLOUDY    83  66  56 S5        29.85R
$$

NJZ001-105-106-008-010-013-015-019>022-104-282300-
NEW JERSEY

CITY           SKY/WX    TMP DP  RH WIND       PRES   REMARKS
Newark/Liberty LGT RAIN  83  70  64 SW18G29   29.87R
Teterboro      LGT RAIN  87  66  49 S16G23    29.85R
Caldwell       PTSUNNY   84  67  56 SW9G17    29.86R
Morristown     RAIN      81  72  74 SW5       29.89R
Somerville     LGT RAIN  78  71  79 S8        29.87R
Linden         FAIR      81  65  58 W8        29.90R
Sussex         HVY RAIN  76  69  79 W3        29.89R
Abdover          N/A     79  68  69 SW12      29.89R
Trenton        LGT RAIN  76  71  85 SW6       29.90S
Millville      HVY RAIN  74  72  93 NE12      29.89F VSB 3/4
Atlantic City  TSTM      75  73  93 N16       29.90R FOG
Wrightstown    LGT RAIN  74  72  94 S7        29.89R
Toms River     RAIN      77  75  93 SW8       29.91R
Belmar         CLOUDY    78  75  90 SW5       29.90F
$$

PAZ047>061-062-071-282300-
EASTERN PENNSYLVANIA

CITY           SKY/WX    TMP DP  RH WIND       PRES   REMARKS
Philadelphia   LGT RAIN  75  72  90 VRB5      29.90F
Allentown      LGT RAIN  77  72  84 S9        29.90S
Scranton       CLOUDY    84  69  60 S8        29.86S
$$

CTZ002-004>006-009-010-012-RIZ004-006-007-MAZ004-011-015-282300-
SOUTHERN NEW ENGLAND
 IN CT

CITY           SKY/WX    TMP DP  RH WIND       PRES   REMARKS
Bradley INTL   CLOUDY    93  61  34 NE7       29.84R HX  93
Hartford       PTSUNNY   90  63  40 S12       29.83R HX  91
Danbury        MOSUNNY   85  62  46 S9        29.88R
Wtrbury/Oxford MOSUNNY   88  61  40 S12       29.92R
Bridgeport     PTSUNNY   85  71  63 S14       29.86R HX  90
Meriden        MOSUNNY   88  61  40 S10       29.85R
New Haven      MOSUNNY   82  73  74 S12       29.86R
Chester        FAIR      84  70  61 S9        29.88R
Groton         SUNNY     78  72  81 S7        29.86R
Wilimantic     MOSUNNY   88  68  51 S14       29.86R HX  91

 IN RI

CITY           SKY/WX    TMP DP  RH WIND       PRES   REMARKS
Providence     PTSUNNY   85  69  58 S12       29.86S
Block Island   SUNNY     79  75  87 SW12      29.89S
Westerly       MOSUNNY   80  72  76 SW7       29.88S
 IN MA

CITY           SKY/WX    TMP DP  RH WIND       PRES   REMARKS
Boston         CLOUDY    89  66  46 S14G23    29.82S HX  91
Worchester     MOSUNNY   86  57  37 SW7       29.89S
Westfield      CLOUDY    92  57  30 W5        29.84R HX  90
Provincetown   MOSUNNY   82  69  64 S13G20    29.86S
Nantucket      SUNNY     74  69  85 S9        29.89S
$$

ANZ330-335-338-340-345-350-353-355-282300-
COASTAL MARINE OBSERVATIONS


STATION/POSITION TIME  SKY/WX   TEMP    WIND        PRES    VSBY  WAVE
                                AIR SEA DIR/SP/G                  HT/PER
                 (UTC)          (F)     (DEG/KT/KT) (MB)    (MI)  (FT/S)
NY HARB ENTRANCE 2050            79 79  180/ 12/ 14 1010.7          2/ 3
20S FIRE ISLAND  2050            77 78  170/  8/  8 1010.8          1/ 8
GREAT SOUTH BAY  NOT AVBL
23 SSW MONTAUK P 2050            76 73  210/  8/ 10 1011.9          1/ 8
15 E BARNEGAT LI 2100               79                N/A           1/ 8
HUDSON CANYON    2050            80 81              1011.6          1/ 6
KINGS POINT      2100            80 76              1010.6
EXECUTION ROCKS  2100            83     170/ 12/ 16   N/A
CENTRAL LI SOUND 2100            82 79  190/ 12/ 14   N/A           1
EASTERN LI SOUND 2100            76 69  170/ 10/ 12   N/A
ROBBINS REEF     2100            79     170/ 15/ 18 1010.4
$$


>>>>>>>>>>>>>>>>>>>>>>>>>>>> KEY <<<<<<<<<<<<<<<<<<<<<<<<<<<
>                                                          <
>     SKY/WX - Sky Condition/Present Weather               <
>     TMP    - Temperature in Fahrenheit                   <
>     DP     - Dew Point in Fahrenheit                     <
>     RH     - Relative Humidity in Percent                <
>     WIND   - Direction (from) and Speed in MPH           <
>     PRES   - Mean Sea Level Pressure (inches of Hg)      <
>     WCI    - Wind Chill Index                            <
>     VSB    - VISIBILITY IN MILES                         <
>     HX     - HEAT INDEX                                  <
>     TC     - TEMPERATURE IN CELSIUS                      <
>     VRB    - VARIABLE WIND DIRECTION                     <
>                                                          <
>>>>>>>>>>>>>>>>>>>>>>>>>>>> KEY <<<<<<<<<<<<<<<<<<<<<<<<<<<




USA.gov is the U.S. government's official web portal to all federal, state and local government web resources and services.